Location: Charlottental
(49.4809°N, 12.6263°E)
Time: 17:33:09
(UTC+00:00)

Daily predictions for brighter satellites

Satellite Brightness Start Highest point End
(mag) Time Altitude Azimuth Time Altitude Azimuth Time Altitude Azimuth
USA 267 3.9 19:50:05 10° E 19:56:28 57° NNE 20:02:52 10° WNW
Meteor 1-21 Rocket 4.4 19:51:02 10° S 19:56:56 77° E 20:02:52 10° NNE
Alouette 2 Rocket 3.8 19:56:49 10° N 20:00:30 55° ENE 20:05:17 10° SSE
Cosmos 1953 Rocket 4.4 19:57:18 10° SSE 20:01:08 32° E 20:04:58 10° NNE
Cosmos 2322 Rocket 2.5 19:56:51 10° SW 20:02:28 74° WNW 20:08:07 10° NNE
SL-08 ROCKET BODY 4.4 19:57:23 10° S 20:03:19 83° E 20:09:25 10° N
NOSS 7 (D) 3.7 20:01:41 10° SSW 20:04:29 61° SE 20:07:08 10° NE
Cosmos 2237 4.2 19:59:28 10° SSW 20:05:10 72° ESE 20:10:54 10° NNE
Cosmos 2084 4.3 20:02:18 10° NW 20:06:37 45° NE 20:10:53 10° ESE
Cosmos 1328 4.0 20:03:34 10° S 20:07:25 51° E 20:11:18 10° NNE
SAR-Lupe-2 4.3 20:06:08 10° NNE 20:09:29 35° E 20:12:49 10° SSE
Cosmos 1455 2.6 20:07:48 10° NNW 20:11:37 65° W 20:15:26 10° S
Cosmos 1825 Rocket 3.6 20:12:21 10° S 20:16:45 67° E 20:21:12 10° NNE
ATLAS CENTAUR R/B 1.8 20:15:05 10° NNW 20:18:42 45° NE 20:22:13 10° ESE
Cosmos 1703 3.2 20:17:27 10° S 20:21:19 83° E 20:25:14 10° NNE
COSMOS 2428 3.4 20:17:26 10° SSE 20:22:26 33° ESE 20:27:29 10° NE
Cosmos 1844 3.9 20:18:00 10° NNW 20:23:49 79° WSW 20:29:31 10° SSE
Cosmos 2322 3.8 20:20:39 10° S 20:26:14 57° ESE 20:31:50 10° NE
CZ-4B DEB 4.4 20:28:15 11° SSE 20:31:30 88° ENE 20:34:53 10° NNW
Cosmos 1709 Rocket 4.0 20:26:38 10° S 20:32:55 79° E 20:39:19 10° NNE
NOSS 3-3 (A) 4.3 20:29:19 10° S 20:34:46 42° ESE 20:40:50 10° NE
NOSS 3-3 (C) 4.3 20:29:26 10° S 20:34:53 41° ESE 20:40:57 10° NE
Terra 2.2 20:31:40 12° SE 20:35:57 55° ENE 20:40:37 10° N
Atlas Centaur 2 4.2 20:33:13 10° SSW 20:36:18 14° S 20:38:47 12° SSE
Cosmos 2237 Rocket 3.7 20:33:11 12° SE 20:36:23 18° E 20:40:07 10° ENE
CARTOSAT-1 3.5 20:32:57 11° SSE 20:37:05 83° ENE 20:41:26 10° NNW
Cosmos 2333 4.2 20:32:25 10° SSW 20:38:00 66° ESE 20:43:41 10° NNE
Cosmos 2219 Rocket 2.5 20:33:06 10° S 20:38:25 48° ESE 20:43:47 10° NE
Cosmos 2360 Rocket 2.6 20:34:43 10° SW 20:40:21 70° WNW 20:46:02 10° NNE
IGS 5A 4.3 20:36:20 10° S 20:40:21 47° W 20:44:24 10° NNW
Cosmos 1538 Rocket 4.4 20:36:09 10° S 20:41:16 48° ESE 20:46:23 10° NNE
Cosmos 2333 Rocket 2.3 20:42:36 10° S 20:48:11 60° ESE 20:53:50 10° NE
Cosmos 1315 Rocket 2.9 20:46:52 10° N 20:50:58 76° ENE 20:54:13 16° SSE
ATLAS 2AS CENTAUR R/B 3.5 20:43:59 10° NW 20:51:33 52° NE 20:58:28 10° ESE
Resurs 01 Rocket 4.0 20:49:26 10° SW 20:52:30 18° W 20:55:34 10° NW
Cosmos-2242 4.1 20:50:15 10° NNW 20:54:20 41° W 20:58:25 10° SSW
Cosmos 1818 4.1 20:50:23 10° SW 20:55:47 65° NW 21:01:14 10° NE
Cosmos 773 Rocket 4.1 20:52:55 10° SSW 20:58:13 87° WNW 21:03:34 10° NNE
Cosmos 2221 2.8 20:55:06 10° N 20:59:26 54° ENE 21:02:29 18° SSE
SL-16 R/B 4.4 20:54:50 10° WSW 20:59:44 29° NW 21:04:40 10° NNE
ERS-1 Rocket 3.4 20:56:51 11° S 21:01:35 60° WSW 21:06:36 10° NNW
GEOS 3 Rocket 3.9 20:57:09 10° NE 21:02:34 79° NW 21:07:57 10° SW
USA 215 3.2 20:59:20 10° ENE 21:05:52 64° SE 21:12:21 10° SW
Cosmos 2278 Rocket 2.4 21:03:08 10° NNW 21:08:49 69° ENE 21:13:09 18° SE
Cosmos 1892 3.6 21:07:02 20° SE 21:08:54 31° E 21:12:18 10° NNE
ATLAS 5 CENTAUR R/B 2.5 21:08:20 10° WSW 21:12:29 53° NW 21:17:14 10° NE
Cosmos 1844 Rocket 4.2 21:08:33 10° NW 21:13:14 28° WSW 21:17:54 10° SSW
Gblst 52 Del rocket 4.4 21:09:37 10° WNW 21:15:17 68° SSW 21:20:33 15° SE
Cosmos 1943 Rocket 4.3 21:12:17 10° N 21:16:18 19° NE 21:20:19 10° E
SPOT 5 3.6 21:13:56 13° S 21:18:21 49° W 21:23:01 10° NNW
SL-16 R/B 3.9 21:18:55 13° ESE 21:20:47 15° E 21:23:53 10° ENE
Lacrosse 5 rocket 3.4 21:17:40 10° WNW 21:21:18 28° N 21:24:46 10° ENE
Cosmos 2056 Rocket 4.5 21:18:28 10° NNW 21:23:36 41° ENE 21:27:39 16° ESE
Nadezhda 3 Rocket 4.3 21:18:22 10° N 21:24:42 60° ENE 21:29:11 20° SSE
Cosmos 2058 3.2 21:25:00 23° SSE 21:27:20 52° E 21:31:23 10° NNE
Cosmos 2154 Rocket 4.3 21:23:04 19° SSE 21:27:25 53° E 21:33:27 10° NNE
BREEZE M DEB (TANK) 4.0 21:26:53 10° WSW 21:27:38 13° SW 21:27:38 13° SW
Cosmos 1408 3.5 21:29:06 25° SE 21:30:22 32° E 21:33:37 10° NNE
Meteor 2-17 Rocket 4.4 21:27:25 17° S 21:32:10 73° E 21:38:13 10° NNE
In-Cosmos 22 Rocket 4.1 21:29:55 19° S 21:33:44 68° E 21:39:02 10° NNE
Cosmos 2074 Rocket 4.0 21:29:15 14° S 21:34:42 90° SW 21:40:59 10° N
TSX-5 3.6 21:32:02 10° NW 21:35:30 78° WSW 21:37:36 27° SSE
Cosmos 1076 Rocket 3.6 21:36:08 24° S 21:38:32 62° E 21:42:46 10° NNE
Cosmos 1680 Rocket 3.8 21:35:41 21° S 21:39:02 51° ESE 21:44:12 10° NNE
USA 267 3.3 21:34:04 17° SE 21:39:23 74° SW 21:45:59 10° WNW
CZ-4C R/B 4.3 21:38:52 10° NW 21:44:44 32° NNE 21:51:32 10° E
Cosmos 1842 Rocket 4.4 21:42:01 10° NNW 21:46:09 43° W 21:49:02 18° SSW
JB-3 4.5 21:43:30 10° N 21:47:21 68° WNW 21:49:57 19° SSW
COSMOS 2455 4.2 21:43:14 10° NNW 21:48:43 34° NE 21:54:10 10° ESE
Cosmos 2151 3.8 21:47:18 25° SE 21:49:03 36° E 21:52:58 10° NNE
EO 1 Delta rocket 4.5 21:44:16 10° NNE 21:49:13 55° E 21:52:50 23° SSE
Cosmos 923 Rocket 4.0 21:52:20 16° SSW 21:56:32 88° ESE 22:01:52 10° NNE
Cosmos 2327 Rocket 4.5 21:52:14 19° S 21:56:54 89° W 22:03:04 10° N
ATLAS CENTAUR R/B 2.8 21:54:30 10° WNW 21:57:18 21° WSW 21:58:26 18° SW
Cosmos 1825 2.5 21:58:09 33° SSE 21:59:28 49° E 22:03:08 10° NNE
ALOS 2 3.3 21:58:03 24° SE 22:00:22 45° ENE 22:04:35 10° N
Cosmos 2369 Rocket 4.0 21:56:22 10° NNW 22:00:57 25° NE 22:05:31 10° E
Cosmos 1151 Rocket 4.1 21:57:07 10° N 22:01:06 34° ENE 22:03:13 21° ESE
Cosmos 1980 3.6 21:56:55 16° SSW 22:01:25 79° ESE 22:07:05 10° NNE
Cosmos 44 4.0 22:05:15 26° SE 22:05:53 27° ESE 22:09:36 10° ENE
COSMOS 2428 3.6 22:01:04 10° SW 22:06:33 48° NW 22:12:04 10° NNE
Cosmos 371 Rocket 4.2 22:04:04 10° NNW 22:08:43 43° ENE 22:11:47 19° ESE
GP-B 3.8 22:05:18 10° NNE 22:09:32 41° E 22:11:23 27° SE
Cosmos 1295 Rocket 4.4 22:06:31 23° S 22:10:36 85° E 22:16:45 10° N
NOSS 0 Rocket 4.0 22:07:42 10° SW 22:13:52 78° WNW 22:20:06 10° NNE
Terra 3.7 22:10:34 11° SW 22:14:01 21° W 22:17:39 10° NW
Cosmos 1624 Rocket 3.9 22:08:55 10° NNW 22:14:12 86° WSW 22:16:57 29° SSE
NOSS 3-4 (A) 3.9 22:07:55 10° NW 22:14:50 70° SW 22:19:47 24° SSE
NOSS 3-4 (C) 3.9 22:08:01 10° NW 22:14:56 71° SW 22:19:55 23° SSE
SL-4 R/B 2.7 22:19:54 19° ENE 22:19:54 19° ENE 22:21:14 10° NNE
Cosmos 2237 Rocket 2.2 22:14:58 15° SSW 22:19:43 84° WNW 22:25:28 10° NNE
Genesis I 3.1 22:18:36 30° SSW 22:20:24 73° SE 22:24:17 10° NE
CREW DRAGON DEMO-1 DEB 4.2 22:22:53 26° E 22:22:53 26° E 22:24:31 10° ENE
Cosmos 2344 3.5 22:16:02 14° SSW 22:22:26 66° SE 22:30:28 10° NE
Cosmos 2219 Rocket 3.7 22:17:25 10° WSW 22:22:33 35° NW 22:27:42 10° NNE
Elektron 1 4.5 22:21:21 18° SW 22:23:47 86° NW 22:29:46 10° NE
Cosmos 1346 Rocket 4.3 22:28:04 20° ESE 22:29:02 23° E 22:32:09 10° NE
Thor Agena Rocket 3.7 22:24:51 10° NNE 22:29:58 70° WNW 22:33:18 22° SSW
DELTA 2 R/B (1) 4.4 22:25:49 10° SW 22:36:22 - ESE 22:30:03 28° S
Cosmos 2333 Rocket 4.0 22:27:51 10° WSW 22:32:51 30° NW 22:37:55 10° NNE
Cosmos 1515 Rocket 4.1 22:37:07 10° N 22:41:21 49° ENE 22:43:15 29° SE
BREEZE-M DEB (TANK) 2.0 22:38:35 10° W 22:41:22 40° WSW 22:41:22 40° WSW
ATLAS 2AS CENTAUR R/B 3.1 22:35:21 10° NW 22:42:38 53° WSW 22:46:25 27° S
EO 1 Del DPAF 4.0 22:39:28 10° N 22:43:05 45° WNW 22:44:59 24° SW
Cosmos 1766 Rocket 3.5 22:44:24 35° S 22:46:13 89° ENE 22:50:39 10° N
Gbstr 26 Del rocket 3.9 22:49:28 26° ESE 22:49:28 26° ESE 22:52:18 10° E
Cosmos 1328 Rocket 3.4 22:44:27 10° N 22:48:47 87° W 22:50:25 38° S
USA 215 3.8 22:42:26 10° ENE 22:48:54 61° NNW 22:55:20 10° W
Aureole 2 Rocket 2.4 22:46:15 10° NW 22:48:59 45° WSW 22:48:59 45° WSW
Okean 3 Rocket 3.6 22:47:02 32° SSW 22:49:02 75° W 22:53:30 10° N
Cosmos 1606 2.9 22:47:16 10° NNW 22:51:07 62° W 22:52:19 39° SSW
Cosmos 2278 Rocket 3.8 22:48:05 10° NW 22:52:23 22° WSW 22:54:59 16° SW
Cosmos 2297 3.8 22:48:39 10° NNW 22:54:21 67° WSW 22:57:11 30° S
Cosmos 2218 Rocket 4.0 22:50:54 28° S 22:54:31 82° E 23:00:52 10° N
Cosmos 304 Rocket 4.3 22:50:28 10° NNW 22:55:13 54° ENE 22:58:03 23° SE
Cosmos 864 Rocket 4.5 22:52:05 28° S 22:55:32 78° E 23:01:51 10° NNE
Cosmos 2228 Rocket 4.0 22:52:38 10° N 22:57:01 41° ENE 22:59:19 24° SE
Cosmos 1420 Rocket 4.0 22:52:53 10° NNW 22:58:09 71° WSW 23:00:36 32° S
Cosmos 2366 rocket 4.0 22:56:35 28° S 23:00:12 86° E 23:06:36 10° N
Cosmos 1943 Rocket 2.3 22:55:23 10° NNW 23:01:05 74° ENE 23:04:40 23° SE
Lacrosse 5 rocket 2.3 22:57:17 10° NW 23:01:11 45° NNE 23:04:52 10° E
Cosmos 1633 3.1 23:01:11 38° SE 23:01:58 45° E 23:05:27 10° NNE
Landsat 4 4.3 22:59:26 10° NNE 23:03:04 43° E 23:03:59 36° SE
SL-16 R/B 2.1 23:00:47 27° SSW 23:04:01 85° ESE 23:09:45 10° NNE
Cosmos 1959 Rocket 4.5 23:06:20 27° SSW 23:09:50 81° W 23:16:06 10° N
YAOGAN 11 4.0 23:09:09 36° SSE 23:10:56 88° ENE 23:15:22 10° NNW
Cosmos 1743 Rocket 3.8 23:12:36 35° SSE 23:14:08 56° E 23:18:24 10° NNE
Cosmos 332 Rocket 3.8 23:14:44 10° NNW 23:19:31 68° WSW 23:21:28 35° S
Cosmos 1048 Rocket 4.3 23:19:32 31° S 23:21:49 55° ESE 23:26:58 10° NNE
USA 267 4.3 23:21:25 22° SSW 23:23:08 25° SW 23:28:21 10° WNW
Meteor 2-3 Rocket 3.8 23:21:02 29° SSW 23:24:03 78° WNW 23:29:49 10° N
Helios 1A 3.3 23:24:53 36° SSW 23:26:12 52° W 23:30:17 10° NNW
Cosmos 405 2.9 23:24:47 10° NNW 23:28:21 76° W 23:29:08 51° S
Meteor 1-29 4.4 23:25:38 10° NE 23:28:29 25° E 23:29:10 23° ESE
Cosmos 1452 Rocket 3.8 23:27:46 10° NNW 23:32:54 54° WSW 23:35:06 32° SSW
CZ-4C R/B 3.1 23:27:20 10° NW 23:34:22 76° NE 23:42:33 10° SE
Meteor 2-6 Rocket 4.2 23:29:20 10° N 23:34:52 75° ENE 23:37:54 27° SSE
PSLV R/B 3.6 23:30:48 10° NNE 23:35:00 64° ESE 23:36:34 36° S
COSMOS 2455 2.9 23:29:06 10° NW 23:35:05 65° WSW 23:38:24 27° SSE
Cosmos 1340 3.5 23:34:23 28° WSW 23:35:46 41° WNW 23:39:22 10° N
ALOS 2 4.2 23:35:27 19° WSW 23:36:55 22° W 23:40:22 10° NW
Cosmos 1110 Rocket 4.1 23:31:37 10° NNW 23:36:55 75° ENE 23:40:16 23° SSE
Cosmos 1408 Rocket 4.2 23:35:56 27° SW 23:37:53 46° WNW 23:42:11 10° N
SL-16 R/B 3.9 23:32:45 10° ESE 23:38:18 35° ENE 23:43:53 10° N
Cosmos 1151 Rocket 4.4 23:34:53 10° NNW 23:38:32 27° W 23:40:03 22° WSW
Cosmos 1603 4.1 23:36:25 29° SSE 23:39:01 49° ESE 23:44:32 10° NE
Cosmos 1727 Rocket 4.3 23:38:39 10° NNW 23:44:42 54° W 23:48:04 26° SSW
APEX 4.2 23:42:48 10° NW 23:44:21 21° W 23:44:21 21° W
Resurs 1-4 Rocket 3.9 23:41:18 10° NE 23:45:19 21° E 23:48:44 12° SE
Cosmos 2369 Rocket 2.1 23:39:59 10° NNW 23:45:36 77° WSW 23:48:49 26° SSE
Cosmos 1500 Rocket 3.6 23:44:49 35° SSW 23:46:37 74° W 23:51:02 10° N
Cosmos 44 3.9 23:43:38 16° WSW 23:46:51 47° NW 23:51:12 10° NNE
Cosmos 371 Rocket 4.5 23:44:49 10° NW 23:48:57 28° W 23:50:25 24° SW
SeaSat 1 3.8 23:45:09 10° NE 23:49:16 26° ESE 23:51:20 20° SE
ISS -1.7 23:51:01 17° ESE 23:51:01 17° ESE 23:52:25 10° E
Helios 1B rocket 2.4 23:49:38 10° NNE 23:53:48 83° ESE 23:55:23 37° S
